When you browse on this site, cookies collect data to enhance your experience and personalize the content and advertising you see.
Visit our Privacy Policy to learn more. By continuing to use the site, you agree to this use of cookies and data.
  • In Hungary
  • List of Countries
  • For 7 days
  • Water Temperature
  • Weather Map
  • News
  • Weather Widgets
  • user-avatar
    Login

    Hourly Weather Lom

    Today, 21 October, Monday

    Time Temperature Precipitation Wind Pressure Humidity
    00:00 +4°C° 0 mm 4 mps 753 mmHg 96%
    01:00 +5°C° 0.1 mm 4 mps 753 mmHg 96%
    02:00 +5°C° 0.1 mm 4 mps 753 mmHg 97%
    03:00 +5°C° 0 mm 4 mps 753 mmHg 97%
    04:00 +6°C° 0.5 mm 4 mps 753 mmHg 97%
    05:00 +6°C° 0.5 mm 4 mps 753 mmHg 97%
    06:00 +7°C° 0.5 mm 4 mps 753 mmHg 97%
    07:00 +7°C° 0 mm 4 mps 752 mmHg 97%
    08:00 +8°C° 0 mm 4 mps 752 mmHg 97%
    09:00 +8°C° 0 mm 4 mps 752 mmHg 97%
    10:00 +9°C° 0.2 mm 5 mps 752 mmHg 95%
    11:00 +9°C° 0.2 mm 5 mps 751 mmHg 93%
    12:00 +10°C° 0.2 mm 6 mps 751 mmHg 91%
    13:00 +10°C° 0 mm 6 mps 750 mmHg 89%
    14:00 +10°C° 0 mm 6 mps 750 mmHg 88%
    15:00 +11°C° 0 mm 6 mps 750 mmHg 87%
    16:00 +11°C° 0 mm 7 mps 749 mmHg 87%
    17:00 +10°C° 0 mm 8 mps 748 mmHg 87%
    18:00 +10°C° 0 mm 8 mps 747 mmHg 88%
    19:00 +11°C° 0.1 mm 8 mps 746 mmHg 87%
    20:00 +11°C° 0.1 mm 9 mps 745 mmHg 87%
    21:00 +11°C° 0.1 mm 9 mps 745 mmHg 86%
    22:00 +10°C° 1.8 mm 8 mps 745 mmHg 86%
    23:00 +10°C° 1.8 mm 7 mps 744 mmHg 85%

    Tomorrow, 22 October, Tuesday

    Time Temperature Precipitation Wind Pressure Humidity
    00:00 +9°C° 1.8 mm 5 mps 744 mmHg 85%
    01:00 +8°C° 0 mm 5 mps 745 mmHg 85%
    02:00 +7°C° 0 mm 5 mps 745 mmHg 86%
    03:00 +6°C° 0 mm 5 mps 746 mmHg 86%
    04:00 +6°C° 0 mm 4 mps 747 mmHg 87%
    05:00 +5°C° 0 mm 4 mps 747 mmHg 88%
    06:00 +4°C° 0 mm 4 mps 747 mmHg 89%
    07:00 +4°C° 0 mm 4 mps 748 mmHg 85%
    08:00 +4°C° 0 mm 4 mps 748 mmHg 82%
    09:00 +3°C° 0 mm 5 mps 749 mmHg 79%
    10:00 +3°C° 0 mm 5 mps 749 mmHg 77%
    11:00 +5°C° 0 mm 5 mps 749 mmHg 75%
    12:00 +5°C° 0 mm 5 mps 750 mmHg 73%
    13:00 +3°C° 0 mm 5 mps 750 mmHg 73%
    14:00 +3°C° 0 mm 5 mps 750 mmHg 73%
    15:00 +3°C° 0 mm 5 mps 751 mmHg 72%
    16:00 +3°C° 0 mm 4 mps 751 mmHg 76%
    17:00 +2°C° 0 mm 3 mps 751 mmHg 80%
    18:00 +1°C° 0 mm 3 mps 751 mmHg 83%
    19:00 +2°C° 0 mm 2 mps 752 mmHg 85%
    20:00 +1°C° 0 mm 2 mps 752 mmHg 87%
    21:00 +1°C° 0 mm 2 mps 752 mmHg 89%
    22:00 +1°C° 0 mm 2 mps 752 mmHg 90%
    23:00 -1°C° 0 mm 2 mps 752 mmHg 90%

    Day after tomorrow, 23 October, Wednesday

    Time Temperature Precipitation Wind Pressure Humidity
    00:00 +1°C° 0 mm 1 mps 751 mmHg 90%
    01:00 -1°C° 0 mm 2 mps 751 mmHg 90%
    02:00 -1°C° 0 mm 2 mps 751 mmHg 91%
    03:00 -1°C° 0 mm 2 mps 751 mmHg 91%
    04:00 -1°C° 0 mm 2 mps 751 mmHg 92%
    05:00 -1°C° 0 mm 3 mps 750 mmHg 93%
    06:00 -1°C° 0 mm 3 mps 750 mmHg 93%
    07:00 -1°C° 0 mm 4 mps 749 mmHg 90%
    08:00 +1°C° 0 mm 5 mps 749 mmHg 86%
    09:00 +2°C° 0 mm 5 mps 748 mmHg 83%
    10:00 +3°C° 0 mm 6 mps 747 mmHg 82%
    11:00 +4°C° 0 mm 6 mps 747 mmHg 81%
    12:00 +5°C° 0 mm 6 mps 746 mmHg 80%
    13:00 +5°C° 0 mm 6 mps 746 mmHg 83%
    14:00 +5°C° 0 mm 6 mps 745 mmHg 85%
    15:00 +5°C° 0 mm 6 mps 745 mmHg 88%
    16:00 +7°C° 0 mm 6 mps 745 mmHg 90%
    17:00 +7°C° 0 mm 5 mps 744 mmHg 92%
    18:00 +7°C° 0 mm 5 mps 744 mmHg 93%
    19:00 +8°C° 0.1 mm 5 mps 744 mmHg 94%
    20:00 +8°C° 0.1 mm 5 mps 744 mmHg 94%
    21:00 +8°C° 0.1 mm 5 mps 744 mmHg 94%
    22:00 +8°C° 0 mm 5 mps 744 mmHg 91%
    23:00 +8°C° 0 mm 5 mps 744 mmHg 89%

    24 October, Thursday

    Time Temperature Precipitation Wind Pressure Humidity
    00:00 +8°C° 0 mm 5 mps 744 mmHg 86%
    01:00 +7°C° 0 mm 5 mps 745 mmHg 86%
    02:00 +7°C° 0 mm 4 mps 746 mmHg 87%
    03:00 +6°C° 0 mm 4 mps 746 mmHg 87%
    04:00 +6°C° 0 mm 4 mps 747 mmHg 89%
    05:00 +5°C° 0 mm 3 mps 747 mmHg 91%
    06:00 +5°C° 0 mm 3 mps 748 mmHg 93%
    07:00 +5°C° 0 mm 3 mps 748 mmHg 88%
    08:00 +5°C° 0 mm 3 mps 749 mmHg 83%
    09:00 +6°C° 0 mm 2 mps 749 mmHg 79%
    10:00 +7°C° 0 mm 2 mps 750 mmHg 75%
    11:00 +7°C° 0 mm 2 mps 750 mmHg 71%
    12:00 +8°C° 0 mm 3 mps 750 mmHg 67%
    13:00 +8°C° 0 mm 2 mps 750 mmHg 69%
    14:00 +7°C° 0 mm 2 mps 751 mmHg 70%
    15:00 +7°C° 0 mm 2 mps 751 mmHg 71%
    16:00 +6°C° 0 mm 2 mps 751 mmHg 75%
    17:00 +6°C° 0 mm 1 mps 751 mmHg 78%
    18:00 +5°C° 0 mm 1 mps 751 mmHg 82%
    19:00 +5°C° 0 mm 1 mps 752 mmHg 83%
    20:00 +5°C° 0 mm 1 mps 752 mmHg 84%
    21:00 +5°C° 0 mm 1 mps 752 mmHg 85%
    22:00 +4°C° 0 mm 2 mps 752 mmHg 86%
    23:00 +4°C° 0 mm 2 mps 752 mmHg 86%

    25 October, Friday

    Time Temperature Precipitation Wind Pressure Humidity
    00:00 +4°C° 0 mm 2 mps 752 mmHg 86%
    01:00 +4°C° 0 mm 2 mps 752 mmHg 89%
    02:00 +2°C° 0 mm 3 mps 751 mmHg 91%
    03:00 +2°C° 0 mm 3 mps 751 mmHg 93%
    04:00 +2°C° 0 mm 3 mps 751 mmHg 94%
    05:00 +2°C° 0 mm 3 mps 751 mmHg 95%
    06:00 +2°C° 0 mm 3 mps 751 mmHg 95%
    07:00 +3°C° 0 mm 4 mps 751 mmHg 93%
    08:00 +4°C° 0 mm 4 mps 751 mmHg 90%
    09:00 +5°C° 0 mm 5 mps 751 mmHg 88%
    10:00 +5°C° 0 mm 5 mps 751 mmHg 87%
    11:00 +6°C° 0 mm 5 mps 750 mmHg 85%
    12:00 +7°C° 0 mm 5 mps 750 mmHg 84%
    13:00 +7°C° 0 mm 5 mps 750 mmHg 83%
    14:00 +7°C° 0 mm 4 mps 750 mmHg 81%
    15:00 +7°C° 0 mm 4 mps 750 mmHg 79%
    16:00 +7°C° 0 mm 4 mps 750 mmHg 81%
    17:00 +7°C° 0 mm 4 mps 751 mmHg 84%
    18:00 +6°C° 0 mm 4 mps 751 mmHg 86%
    19:00 +6°C° 0 mm 4 mps 751 mmHg 88%
    20:00 +5°C° 0 mm 3 mps 751 mmHg 89%
    21:00 +5°C° 0 mm 3 mps 751 mmHg 91%
    22:00 +4°C° 0 mm 3 mps 751 mmHg 92%
    23:00 +4°C° 0 mm 3 mps 751 mmHg 93%

    26 October, Saturday

    Time Temperature Precipitation Wind Pressure Humidity
    00:00 +4°C° 0 mm 3 mps 751 mmHg 94%
    01:00 +4°C° 0 mm 3 mps 750 mmHg 93%
    02:00 +4°C° 0 mm 3 mps 750 mmHg 93%
    03:00 +4°C° 0 mm 3 mps 750 mmHg 93%
    04:00 +4°C° 0 mm 4 mps 749 mmHg 93%
    05:00 +3°C° 0 mm 5 mps 749 mmHg 93%
    06:00 +3°C° 0 mm 5 mps 748 mmHg 93%
    07:00 +4°C° 0 mm 6 mps 747 mmHg 91%
    08:00 +5°C° 0 mm 6 mps 746 mmHg 89%
    09:00 +5°C° 0 mm 7 mps 746 mmHg 86%
    10:00 +6°C° 0 mm 7 mps 745 mmHg 83%
    11:00 +7°C° 0 mm 8 mps 744 mmHg 80%
    12:00 +9°C° 0 mm 8 mps 744 mmHg 77%
    13:00 +9°C° 0 mm 8 mps 743 mmHg 79%
    14:00 +9°C° 0 mm 8 mps 742 mmHg 81%
    15:00 +8°C° 0 mm 7 mps 742 mmHg 83%
    16:00 +8°C° 0 mm 7 mps 742 mmHg 82%
    17:00 +8°C° 0 mm 7 mps 742 mmHg 81%
    18:00 +8°C° 0 mm 7 mps 742 mmHg 80%
    19:00 +8°C° 0.1 mm 7 mps 742 mmHg 79%
    20:00 +8°C° 0.1 mm 7 mps 743 mmHg 78%
    21:00 +8°C° 0.1 mm 6 mps 743 mmHg 76%
    22:00 +7°C° 0 mm 6 mps 744 mmHg 78%
    23:00 +5°C° 0 mm 6 mps 744 mmHg 79%

    27 October, Sunday

    Time Temperature Precipitation Wind Pressure Humidity
    00:00 +5°C° 0 mm 5 mps 745 mmHg 80%
    01:00 +5°C° 0 mm 5 mps 745 mmHg 82%
    02:00 +5°C° 0 mm 5 mps 746 mmHg 84%
    03:00 +3°C° 0 mm 5 mps 746 mmHg 86%
    04:00 +3°C° 0 mm 5 mps 747 mmHg 88%
    05:00 +4°C° 0 mm 4 mps 747 mmHg 90%
    06:00 +3°C° 0 mm 4 mps 747 mmHg 93%
    07:00 +4°C° 0 mm 4 mps 747 mmHg 91%
    08:00 +4°C° 0 mm 4 mps 748 mmHg 89%
    09:00 +5°C° 0 mm 4 mps 748 mmHg 87%
    10:00 +6°C° 0 mm 4 mps 748 mmHg 83%
    11:00 +6°C° 0 mm 4 mps 748 mmHg 80%
    12:00 +7°C° 0 mm 4 mps 748 mmHg 76%
    13:00 +7°C° 0 mm 4 mps 747 mmHg 77%
    14:00 +7°C° 0 mm 4 mps 747 mmHg 77%
    15:00 +7°C° 0 mm 5 mps 746 mmHg 77%
    16:00 +7°C° 0 mm 5 mps 746 mmHg 80%
    17:00 +7°C° 0 mm 6 mps 745 mmHg 82%
    18:00 +5°C° 0 mm 6 mps 745 mmHg 84%
    19:00 +5°C° 0 mm 6 mps 744 mmHg 85%
    20:00 +5°C° 0 mm 6 mps 744 mmHg 86%
    21:00 +5°C° 0 mm 6 mps 743 mmHg 87%
    22:00 +5°C° 0 mm 6 mps 743 mmHg 88%
    23:00 +5°C° 0 mm 6 mps 742 mmHg 90%
    Show more